AAL202 KJFK-KDCA

Flight info

Callsign AAL202
Flight time N/A
Altitude 24000
Route RBV Q430 COPES Q75 MXE CLIPR3
Aircraft A319/M-SDE3FGHIRWY/LB1

Departure

Time 2026-05-04 22:03
Airport John F. Kennedy International Airport (KJFK)

Arrival

Time N/A
Airport Ronald Reagan Washington National Airport (KDCA)
Time Latitude Longitude Altitude Speed Heading
2026-05-04 21:40 40.64675 -73.77531 21 ft 0 kts 237°
2026-05-04 21:43 40.64676 -73.77529 21 ft 0 kts 238°
2026-05-04 21:51 40.64676 -73.77528 20 ft 2 kts 238°
2026-05-04 21:51 40.64689 -73.77500 20 ft 4 kts 239°
2026-05-04 21:51 40.64702 -73.77470 24 ft 4 kts 250°
2026-05-04 21:52 40.64706 -73.77438 22 ft 4 kts 294°
2026-05-04 21:52 40.64704 -73.77432 20 ft 0 kts 301°
2026-05-04 21:54 40.64707 -73.77440 20 ft 2 kts 301°
2026-05-04 21:54 40.64718 -73.77463 20 ft 4 kts 301°
2026-05-04 21:54 40.64736 -73.77503 20 ft 6 kts 301°
2026-05-04 21:54 40.64746 -73.77524 20 ft 0 kts 301°
2026-05-04 21:55 40.64747 -73.77528 23 ft 2 kts 301°
2026-05-04 21:55 40.64774 -73.77554 22 ft 6 kts 349°
2026-05-04 21:55 40.64817 -73.77565 20 ft 0 kts 319°
2026-05-04 21:56 40.64849 -73.77597 23 ft 11 kts
2026-05-04 21:56 40.64873 -73.77578 20 ft 1 kts 36°
2026-05-04 21:56 40.64878 -73.77524 20 ft 11 kts 108°
2026-05-04 21:57 40.64835 -73.77427 20 ft 13 kts 121°
2026-05-04 21:57 40.64786 -73.77318 20 ft 15 kts 120°
2026-05-04 21:57 40.64737 -73.77212 20 ft 12 kts 122°
2026-05-04 21:57 40.64684 -73.77120 22 ft 13 kts 140°
2026-05-04 21:58 40.64605 -73.77086 20 ft 9 kts 176°
2026-05-04 21:58 40.64581 -73.77073 20 ft 1 kts 139°
2026-05-04 21:58 40.64573 -73.77025 20 ft 9 kts 90°
2026-05-04 21:58 40.64591 -73.76922 21 ft 13 kts 39°
2026-05-04 21:59 40.64674 -73.76865 21 ft 14 kts 26°
2026-05-04 21:59 40.64762 -73.76792 21 ft 15 kts 33°
2026-05-04 21:59 40.64843 -73.76725 22 ft 14 kts 32°
2026-05-04 21:59 40.64924 -73.76659 21 ft 15 kts 31°
2026-05-04 22:00 40.65018 -73.76587 22 ft 17 kts 30°
2026-05-04 22:00 40.65103 -73.76504 22 ft 14 kts 73°
2026-05-04 22:00 40.65096 -73.76460 22 ft 0 kts 114°
2026-05-04 22:01 40.65082 -73.76425 24 ft 10 kts 120°
2026-05-04 22:01 40.65038 -73.76355 22 ft 8 kts 159°
2026-05-04 22:01 40.65014 -73.76363 22 ft 0 kts 208°
2026-05-04 22:02 40.64993 -73.76378 23 ft 17 kts 210°
2026-05-04 22:02 40.64651 -73.76645 21 ft 94 kts 211°
2026-05-04 22:02 40.63921 -73.77212 23 ft 150 kts 211°
2026-05-04 22:03 40.62981 -73.77970 536 ft 159 kts 209°
2026-05-04 22:03 40.62039 -73.78737 1307 ft 161 kts 211°
2026-05-04 22:03 40.61068 -73.79528 1983 ft 167 kts 213°
2026-05-04 22:03 40.60171 -73.80528 2641 ft 172 kts 233°
2026-05-04 22:04 40.59436 -73.81812 3266 ft 180 kts 234°
2026-05-04 22:04 40.58668 -73.83156 3882 ft 188 kts 234°
2026-05-04 22:04 40.58399 -73.83626 4093 ft 190 kts 235°
2026-05-04 22:04 40.57915 -73.84492 4450 ft 196 kts 237°
2026-05-04 22:05 40.57087 -73.85990 5065 ft 209 kts 235°
2026-05-04 22:05 40.56170 -73.87580 5700 ft 227 kts 234°
2026-05-04 22:05 40.55173 -73.89298 6338 ft 246 kts 234°
2026-05-04 22:05 40.54109 -73.91137 6940 ft 255 kts 234°
2026-05-04 22:06 40.53030 -73.93001 7528 ft 258 kts 235°
2026-05-04 22:06 40.51939 -73.94892 8141 ft 260 kts 235°
2026-05-04 22:06 40.50843 -73.96798 8756 ft 263 kts 236°
2026-05-04 22:06 40.49749 -73.98700 9388 ft 266 kts 236°
2026-05-04 22:07 40.48627 -74.00640 10001 ft 269 kts 236°